This demonstration page uses our WeatherBlox Daily Observations layout. Learn more.

Left ArrowRight Arrow

36.19886, -115.1175

Hourly Observations for February 10, 2017

Temp ( °F °C ) Dew Point ( °F °C ) Humidity (%) Winds ( mph kmh ) Pressure ( in mb ) Visibility ( mi km ) Precip ( " mm )
12:53 am 00:53 Clear 59 15 47 8.3 64 64 ESE 6 9 29.95 1014 10 16 0.00 0.00
1:53 am 01:53 Clear 58 14.4 48 8.9 70 70 Calm 29.95 1014 10 16 0.00 0.00
2:53 am 02:53 Clear 58 14.4 47 8.3 67 67 SE 9 15 29.93 1013 10 16 0.00 0.00
3:53 am 03:53 Clear 58 14.4 46 7.8 65 65 ESE 9 15 29.92 1013 10 16 0.00 0.00
4:53 am 04:53 Clear 64 17.8 41 5 43 43 S 14 22 29.91 1013 10 16 0.00 0.00
5:53 am 05:53 Clear 66 18.9 37 2.8 34 34 S 13 20 29.92 1013 10 16 0.00 0.00
6:53 am 06:53 Sunny 66 18.9 35 1.7 32 32 SSE 14 22 29.93 1014 10 16 0.00 0.00
7:53 am 07:53 Sunny 67 19.4 34 1.1 30 30 S 16 26 29.95 1014 10 16 0.00 0.00
8:53 am 08:53 Sunny 68 20 33 0.6 27 27 S 16 26 29.96 1015 10 16 0.00 0.00
9:53 am 09:53 Sunny 71 21.7 32 0 24 24 S 15 24 29.95 1014 10 16 0.00 0.00
10:53 am 10:53 Sunny 73 22.8 31 -0.6 21 21 S 17 28 29.94 1014 10 16 0.00 0.00
11:53 am 11:53 Sunny 74 23.3 28 -2.2 18 18 SSW 14 22 29.93 1014 10 16 0.00 0.00
12:53 pm 12:53 Partly Cloudy 75 23.9 27 -2.8 17 17 SW 15 24 29.93 1013 10 16 0.00 0.00
1:53 pm 13:53 Sunny 73 22.8 28 -2.2 19 19 SW 9 15 29.92 1013 10 16 0.00 0.00
2:53 pm 14:53 Mostly Cloudy 73 22.8 32 0 22 22 SSW 10 17 29.91 1013 10 16 0.00 0.00
3:53 pm 15:53 Mostly Sunny 73 22.8 34 1.1 24 24 S 12 19 29.91 1013 10 16 0.00 0.00
4:53 pm 16:53 Cloudy 70 21.1 38 3.3 31 31 S 15 24 29.92 1013 10 16 0.00 0.00
5:53 pm 17:53 Cloudy 70 21.1 40 4.4 34 34 SW 10 17 29.93 1014 10 16 0.00 0.00
6:53 pm 18:53 Mostly Cloudy 68 20 39 3.9 35 35 WSW 10 17 29.96 1015 10 16 0.00 0.00
7:46 pm 19:46 Partly Cloudy 67 19.4 39 3.9 36 36 WNW 15 24 29.88 1012 10 16 0.00 0.00
7:53 pm 19:53 Mostly Clear 66 18.9 38 3.3 36 36 W 18 30 29.95 1014 10 16 0.00 0.00
8:53 pm 20:53 Mostly Cloudy 65 18.3 38 3.3 37 37 S 9 15 29.97 1015 10 16 0.00 0.00
9:53 pm 21:53 Mostly Cloudy 64 17.8 40 4.4 41 41 SW 14 22 29.96 1015 10 16 0.00 0.00
10:53 pm 22:53 Cloudy 63 17.2 43 6.1 48 48 SW 10 17 29.95 1014 10 16 0.00 0.00
11:53 pm 23:53 Cloudy 61 16.1 45 7.2 56 56 SSW 13 20 29.94 1014 10 16 0.00 0.00

Powered by AerisWeather